Location: Aulus
(42.7909°N, 1.3399°E)
Time: 05:48:23
(UTC+00:00)

Cosmos 1656 - Pass Details

Date: 19 May 2025
Orbit: 796 x 848 km, 71.1° (Epoch: 18 June)

Event Time Altitude Azimuth Distance (km) Brightness Sun altitude
Rises 19:50:30 0° 339° (NNW) 3,404 7.9 -6.4°
Reaches altitude 10° 19:53:04 10° 345° (NNW) 2,460 7.0 -6.8°
Maximum altitude 19:58:32 49° 60° (ENE) 1,058 4.1 -7.6°
Drops below altitude 10° 20:03:53 10° 136° (SE) 2,413 5.4 -8.4°
Enters shadow 20:03:55 10° 136° (SE) 2,421 5.4 -8.4°
